[Iaude] MPEC B42: 2019 AM13 [a=1.30,e=0.93,i=16.7,H=21.9]

mpec at mpcdb1.cfa.harvard.edu mpec at mpcdb1.cfa.harvard.edu
Thu Jan 17 11:57:17 EST 2019


M.P.E.C. 2019-B42                                Issued 2019 Jan. 17, 16:53 UT
 
     The Minor Planet Electronic Circulars contain information on unusual
         minor planets and routine data on comets.  They are published
    on behalf of Division F of the International Astronomical Union by the
          Minor Planet Center, Smithsonian Astrophysical Observatory,
                          Cambridge, MA 02138, U.S.A.

             Prepared using the Tamkin Foundation Computer Network

                              MPC at CFA.HARVARD.EDU
            URL https://www.minorplanetcenter.net/    ISSN 1523-6714


                                   2019 AM13
 
Observations:
     K19A13M* C2019 01 13.59106 11 47 54.737+43 43 14.83         20.5 wUEB042F51
     K19A13M  C2019 01 13.60230 11 47 38.464+43 44 26.02         20.6 wUEB042F51
     K19A13M  C2019 01 13.61353 11 47 22.258+43 45 36.51         20.6 wUEB042F51
     K19A13M  C2019 01 13.62474 11 47 06.060+43 46 46.65         20.4 wUEB042F51
     K19A13M ^C2019 01 14.62814911 23 01.341+45 20 14.00         20.64GVEB042568
     K19A13M ^C2019 01 14.62909811 22 59.942+45 20 18.60         20.55GVEB042568
     K19A13M ^C2019 01 14.63005811 22 58.532+45 20 23.25         20.20GVEB042568
     K19A13M KC2019 01 15.09102011 11 50.59 +45 55 19.2          20.7 GVEB042L01
     K19A13M KC2019 01 15.09319111 11 47.39 +45 55 28.0          20.6 GVEB042L01
     K19A13M KC2019 01 15.09555511 11 43.96 +45 55 37.8          20.6 GVEB042L01
     K19A13M  C2019 01 17.37771 10 17 46.03 +47 39 56.1          19.8 GVEB042I52
     K19A13M  C2019 01 17.38305 10 17 38.64 +47 40 03.4          20.8 GVEB042I52
     K19A13M  C2019 01 17.38401 10 17 37.41 +47 40 05.0          19.1 GVEB042I52
 
Observer details:
568 Mauna Kea.  Observers R. Wainscoat, L. Wells, S. Prunet.  Measurers
    R. Weryk, R. Wainscoat.  3.6-m Canada-France-Hawaii Telescope + CCD.
F51 Pan-STARRS 1, Haleakala.  Observers J. Bulger, T. Lowe, A. Schultz,
    M. Willman.  Measurers K. Chambers, S. Chastel, L. Denneau, J. Fairlamb,
    H. Flewelling, M. Huber, C.-C. Lin, E. Magnier, Y. Ramanjooloo,
    R. Wainscoat, R. Weryk.  1.8-m Ritchey-Chretien + CCD.
I52 Steward Observatory, Mt. Lemmon Station.  Observer D. C. Fuls.  Measurers
    B. M. Africano, E. J. Christensen, G. A. Farneth, D. C. Fuls, A. R. Gibbs,
    A. D. Grauer, H. Groeller, R. A. Kowalski, S. M. Larson, G. J. Leonard,
    R. L. Seaman, F. C. Shelly.  1.0-m reflector + CCD.
L01 Visnjan Observatory, Tican.  Observers K. Korlevic, F. Valentine.
    Measurer K. Korlevic.  1.0-m f/2.9 reflector + CCD.
 
Orbital elements:
2019 AM13                                                Earth MOID = 0.1324 AU
Epoch 2019 Apr. 27.0 TT = JDT 2458600.5                 MPC
M  97.74683              (2000.0)            P               Q
n   0.66587301     Peri.  359.92501     +0.79801414     +0.57732042
a   1.2987985      Node   323.01271     -0.55276055     +0.58696338
e   0.9301055      Incl.   16.69559     -0.24006083     +0.56760472
P   1.48           H   21.9           G   0.15           U   9
Residuals in seconds of arc
190113 F51  0.3+  0.1+    190114 568  0.2+  0.0     190117 I52  0.1-  0.2-
190113 F51  0.1-  0.3+    190114 568  0.2+  0.0     190117 I52  0.3-  0.1-
190113 F51  0.0   0.1+    190115 L01  0.0   0.9+    190117 I52  0.6+  0.3+
190113 F51  0.0   0.0     190115 L01  0.1-  0.4+
190114 568  0.2+  0.0     190115 L01  0.3+  0.1+

Ephemeris:
2019 AM13                a,e,i = 1.30, 0.93, 17                  q = 0.0908
Date    TT    R. A. (2000) Decl.     Delta      r     Elong.  Phase     V
2018 12 18    16 12 28.8 -07 15 11   0.4742  0.5998    26.8   132.4    25.1
...
2019 01 02    14 50 57.2 +14 15 12   0.2677  0.9214    68.9    95.4    22.3
...
2019 01 10    13 05 28.6 +35 27 36   0.2162  1.0635   106.0    62.7    20.9
...
2019 01 16    10 49 57.7 +46 50 23   0.2325  1.1607   135.4    36.5    20.5
2019 01 17    10 26 25.2 +47 30 05   0.2401  1.1762   139.3    33.0    20.5
2019 01 18    10 03 54.4 +47 49 55   0.2488  1.1915   142.8    29.9    20.6
...
2019 01 24    08 21 47.5 +45 35 41   0.3208  1.2799   153.8    19.9    21.0
...
2019 02 01    07 17 00.1 +40 11 14   0.4496  1.3891   148.7    21.6    21.9
...
2019 02 16    06 38 49.7 +33 37 50   0.7381  1.5715   130.6    28.5    23.5

A. U. Tomatic                (C) Copyright 2019 MPC           M.P.E.C. 2019-B42



More information about the Iaude mailing list